Location: Mohawk View
(42.7837°N, 73.7885°W)
Time: 05:44:39
(UTC+00:00)

Spot 4 - Pass Details

Date: 17 June 2021
Orbit: 705 x 722 km, 98.3° (Epoch: 03 August)

Event Time Altitude Azimuth Distance (km) Brightness Sun altitude
Exits shadow 04:28:52 46° 239° (WSW) 956 4.3 -23.5°
Maximum altitude 04:29:25 48° 261° (W) 928 4.3 -23.5°
Drops below altitude 10° 04:34:03 10° 335° (NNW) 2,188 7.3 -23.6°
Sets 04:36:23 0° 341° (NNW) 3,110 8.5 -23.7°
